Year,Month,Day,Hour,Minute,Value (Times are PST for temperature in C)
2010,08,16,00,00,19.20
2010,08,16,00,01,19.30
2010,08,16,00,02,19.30
2010,08,16,00,03,19.40
2010,08,16,00,04,19.40
2010,08,16,00,05,19.50
2010,08,16,00,06,19.50
2010,08,16,00,07,19.60
2010,08,16,00,08,19.60
2010,08,16,00,09,19.70
2010,08,16,00,10,19.70
2010,08,16,00,11,19.80
2010,08,16,00,12,19.80
2010,08,16,00,13,19.80
2010,08,16,00,14,19.80
2010,08,16,00,15,19.80
2010,08,16,00,16,19.80
2010,08,16,00,17,19.80
2010,08,16,00,18,19.80
2010,08,16,00,19,19.80
2010,08,16,00,20,19.80
2010,08,16,00,21,19.80
2010,08,16,00,22,19.80
2010,08,16,00,23,19.80
2010,08,16,00,24,19.80
2010,08,16,00,25,19.80
2010,08,16,00,26,19.80
2010,08,16,00,27,19.80
2010,08,16,00,28,19.70
2010,08,16,00,29,19.70
2010,08,16,00,30,19.70
2010,08,16,00,31,19.70
2010,08,16,00,32,19.70
2010,08,16,00,33,19.60
2010,08,16,00,34,19.60
2010,08,16,00,35,19.60
2010,08,16,00,36,19.50
2010,08,16,00,37,19.50
2010,08,16,00,38,19.50
2010,08,16,00,39,19.50
2010,08,16,00,40,19.50
2010,08,16,00,41,19.50
2010,08,16,00,42,19.50
2010,08,16,00,43,19.60
2010,08,16,00,44,19.60
2010,08,16,00,45,19.60
2010,08,16,00,46,19.60
2010,08,16,00,47,19.60
2010,08,16,00,48,19.70
2010,08,16,00,49,19.70
2010,08,16,00,50,19.70
2010,08,16,00,51,19.80
2010,08,16,00,52,19.80
2010,08,16,00,53,20.00
2010,08,16,00,54,20.10
2010,08,16,00,55,20.20
2010,08,16,00,56,20.30
2010,08,16,00,57,20.40
2010,08,16,00,58,20.50
2010,08,16,00,59,20.60
2010,08,16,01,00,20.60
2010,08,16,01,01,20.70
2010,08,16,01,02,20.80
2010,08,16,01,03,20.80
2010,08,16,01,04,20.90
2010,08,16,01,05,20.90
2010,08,16,01,06,20.90
2010,08,16,01,07,20.80
2010,08,16,01,08,20.80
2010,08,16,01,09,20.80
2010,08,16,01,10,20.80
2010,08,16,01,11,20.90
2010,08,16,01,12,20.90
2010,08,16,01,13,21.00
2010,08,16,01,14,21.20
2010,08,16,01,15,21.30
2010,08,16,01,16,21.50
2010,08,16,01,17,21.70
2010,08,16,01,18,21.90
2010,08,16,01,19,22.30
2010,08,16,01,20,22.70
2010,08,16,01,21,22.90
2010,08,16,01,22,23.30
2010,08,16,01,23,23.60
2010,08,16,01,24,23.80
2010,08,16,01,25,24.00
2010,08,16,01,26,24.10
2010,08,16,01,27,24.30
2010,08,16,01,28,24.50
2010,08,16,01,29,24.70
2010,08,16,01,30,24.80
2010,08,16,01,31,24.90
2010,08,16,01,32,25.00
2010,08,16,01,33,25.20
2010,08,16,01,34,25.30
2010,08,16,01,35,25.50
2010,08,16,01,36,25.60
2010,08,16,01,37,25.80
2010,08,16,01,38,26.00
2010,08,16,01,39,26.10
2010,08,16,01,40,26.10
2010,08,16,01,41,26.20
2010,08,16,01,42,26.20
2010,08,16,01,43,26.20
2010,08,16,01,44,26.20
2010,08,16,01,45,26.30
2010,08,16,01,46,26.50
2010,08,16,01,47,26.70
2010,08,16,01,48,26.90
2010,08,16,01,49,27.00
2010,08,16,01,50,27.20
2010,08,16,01,51,27.30
2010,08,16,01,52,27.40
2010,08,16,01,53,27.40
2010,08,16,01,54,27.50
2010,08,16,01,55,27.50
2010,08,16,01,56,27.50
2010,08,16,01,57,27.50
2010,08,16,01,58,27.50
2010,08,16,01,59,27.50
2010,08,16,02,00,27.40
2010,08,16,02,01,27.40
2010,08,16,02,02,27.40
2010,08,16,02,03,27.30
2010,08,16,02,04,27.30
2010,08,16,02,05,27.30
2010,08,16,02,06,27.20
2010,08,16,02,07,27.20
2010,08,16,02,08,27.20
2010,08,16,02,09,27.10
2010,08,16,02,10,27.10
2010,08,16,02,11,27.10
2010,08,16,02,12,27.00
2010,08,16,02,13,27.00
2010,08,16,02,14,26.90
2010,08,16,02,15,26.80
2010,08,16,02,16,26.70
2010,08,16,02,17,26.70
2010,08,16,02,18,26.60
2010,08,16,02,19,26.50
2010,08,16,02,20,26.50
2010,08,16,02,21,26.40
2010,08,16,02,22,26.40
2010,08,16,02,23,26.40
2010,08,16,02,24,26.30
2010,08,16,02,25,26.30
2010,08,16,02,26,26.30
2010,08,16,02,27,26.30
2010,08,16,02,28,26.40
2010,08,16,02,29,26.50
2010,08,16,02,30,26.50
2010,08,16,02,31,26.50
2010,08,16,02,32,26.60
2010,08,16,02,33,26.60
2010,08,16,02,34,26.60
2010,08,16,02,35,26.60
2010,08,16,02,36,26.50
2010,08,16,02,37,26.40
2010,08,16,02,38,26.40
2010,08,16,02,39,26.30
2010,08,16,02,40,26.30
2010,08,16,02,41,26.20
2010,08,16,02,42,26.20
2010,08,16,02,43,26.10
2010,08,16,02,44,26.10
2010,08,16,02,45,26.00
2010,08,16,02,46,25.90
2010,08,16,02,47,25.90
2010,08,16,02,48,25.80
2010,08,16,02,49,25.70
2010,08,16,02,50,25.70
2010,08,16,02,51,25.60
2010,08,16,02,52,25.60
2010,08,16,02,53,25.50
2010,08,16,02,54,25.60
2010,08,16,02,55,25.60
2010,08,16,02,56,25.60
2010,08,16,02,57,25.70
2010,08,16,02,58,25.70
2010,08,16,02,59,25.70
2010,08,16,03,00,25.70
2010,08,16,03,01,25.70
2010,08,16,03,02,25.70
2010,08,16,03,03,25.70
2010,08,16,03,04,25.60
2010,08,16,03,05,25.60
2010,08,16,03,06,25.60
2010,08,16,03,07,25.60
2010,08,16,03,08,25.60
2010,08,16,03,09,25.60
2010,08,16,03,10,25.60
2010,08,16,03,11,25.60
2010,08,16,03,12,25.60
2010,08,16,03,13,25.60
2010,08,16,03,14,25.60
2010,08,16,03,15,25.60
2010,08,16,03,16,25.60
2010,08,16,03,17,25.60
2010,08,16,03,18,25.70
2010,08,16,03,19,25.80
2010,08,16,03,20,25.80
2010,08,16,03,21,25.90
2010,08,16,03,22,25.90
2010,08,16,03,23,26.00
2010,08,16,03,24,26.10
2010,08,16,03,25,26.10
2010,08,16,03,26,26.10
2010,08,16,03,27,26.20
2010,08,16,03,28,26.20
2010,08,16,03,29,26.20
2010,08,16,03,30,26.20
2010,08,16,03,31,26.20
2010,08,16,03,32,26.20
2010,08,16,03,33,26.20
2010,08,16,03,34,26.20
2010,08,16,03,35,26.20
2010,08,16,03,36,26.20
2010,08,16,03,37,26.20
2010,08,16,03,38,26.20
2010,08,16,03,39,26.20
2010,08,16,03,40,26.10
2010,08,16,03,41,26.10
2010,08,16,03,42,26.10
2010,08,16,03,43,26.20
2010,08,16,03,44,26.20
2010,08,16,03,45,26.10
2010,08,16,03,46,26.10
2010,08,16,03,47,26.10
2010,08,16,03,48,26.10
2010,08,16,03,49,26.10
2010,08,16,03,50,26.10
2010,08,16,03,51,26.10
2010,08,16,03,52,26.10
2010,08,16,03,53,26.10
2010,08,16,03,54,26.10
2010,08,16,03,55,26.10
2010,08,16,03,56,26.10
2010,08,16,03,57,26.10
2010,08,16,03,58,26.00
2010,08,16,03,59,26.00
2010,08,16,04,00,25.90
2010,08,16,04,01,25.90
2010,08,16,04,02,25.80
2010,08,16,04,03,25.80
2010,08,16,04,04,25.80
2010,08,16,04,05,25.80
2010,08,16,04,06,25.80
2010,08,16,04,07,25.80
2010,08,16,04,08,25.70
2010,08,16,04,09,25.80
2010,08,16,04,10,25.80
2010,08,16,04,11,25.80
2010,08,16,04,12,25.80
2010,08,16,04,13,25.80
2010,08,16,04,14,25.80
2010,08,16,04,15,25.80
2010,08,16,04,16,25.80
2010,08,16,04,17,25.80
2010,08,16,04,18,25.80
2010,08,16,04,19,25.80
2010,08,16,04,20,25.80
2010,08,16,04,21,25.80
2010,08,16,04,22,25.80
2010,08,16,04,23,25.80
2010,08,16,04,24,25.90
2010,08,16,04,25,25.90
2010,08,16,04,26,26.00
2010,08,16,04,27,26.00
2010,08,16,04,28,26.10
2010,08,16,04,29,26.10
2010,08,16,04,30,26.10
2010,08,16,04,31,26.10
2010,08,16,04,32,26.20
2010,08,16,04,33,26.20
2010,08,16,04,34,26.20
2010,08,16,04,35,26.20
2010,08,16,04,36,26.20
2010,08,16,04,37,26.20
2010,08,16,04,38,26.20
2010,08,16,04,39,26.10
2010,08,16,04,40,26.10
2010,08,16,04,41,26.10
2010,08,16,04,42,26.00
2010,08,16,04,43,26.00
2010,08,16,04,44,26.00
2010,08,16,04,45,25.90
2010,08,16,04,46,25.90
2010,08,16,04,47,25.90
2010,08,16,04,48,25.90
2010,08,16,04,49,26.00
2010,08,16,04,50,26.00
2010,08,16,04,51,26.10
2010,08,16,04,52,26.10
2010,08,16,04,53,26.10
2010,08,16,04,54,26.20
2010,08,16,04,55,26.20
2010,08,16,04,56,26.20
2010,08,16,04,57,26.10
2010,08,16,04,58,26.10
2010,08,16,04,59,26.10
2010,08,16,05,00,26.10
2010,08,16,05,01,26.10
2010,08,16,05,02,26.10
2010,08,16,05,03,26.00
2010,08,16,05,04,26.00
2010,08,16,05,05,25.90
2010,08,16,05,06,25.90
2010,08,16,05,07,25.80
2010,08,16,05,08,25.80
2010,08,16,05,09,25.80
2010,08,16,05,10,25.70
2010,08,16,05,11,25.70
2010,08,16,05,12,25.70
2010,08,16,05,13,25.70
2010,08,16,05,14,25.70
2010,08,16,05,15,25.60
2010,08,16,05,16,25.60
2010,08,16,05,17,25.60
2010,08,16,05,18,25.60
2010,08,16,05,19,25.70
2010,08,16,05,20,25.70
2010,08,16,05,21,25.70
2010,08,16,05,22,25.70
2010,08,16,05,23,25.70
2010,08,16,05,24,25.70
2010,08,16,05,25,25.70
2010,08,16,05,26,25.70
2010,08,16,05,27,25.70
2010,08,16,05,28,25.70
2010,08,16,05,29,25.70
2010,08,16,05,30,25.70
2010,08,16,05,31,25.70
2010,08,16,05,32,25.70
2010,08,16,05,33,25.70
2010,08,16,05,34,25.80
2010,08,16,05,35,25.80
2010,08,16,05,36,25.80
2010,08,16,05,37,25.80
2010,08,16,05,38,25.80
2010,08,16,05,39,25.80
2010,08,16,05,40,25.80
2010,08,16,05,41,25.70
2010,08,16,05,42,25.70
2010,08,16,05,43,25.60
2010,08,16,05,44,25.60
2010,08,16,05,45,25.60
2010,08,16,05,46,25.60
2010,08,16,05,47,25.60
2010,08,16,05,48,25.60
2010,08,16,05,49,25.50
2010,08,16,05,50,25.50
2010,08,16,05,51,25.50
2010,08,16,05,52,25.40
2010,08,16,05,53,25.40
2010,08,16,05,54,25.40
2010,08,16,05,55,25.40
2010,08,16,05,56,25.40
2010,08,16,05,57,25.40
2010,08,16,05,58,25.40
2010,08,16,05,59,25.50
2010,08,16,06,00,25.60
2010,08,16,06,01,25.60
2010,08,16,06,02,25.60
2010,08,16,06,03,25.60
2010,08,16,06,04,25.60
2010,08,16,06,05,25.60
2010,08,16,06,06,25.60
2010,08,16,06,07,25.70
2010,08,16,06,08,25.70
2010,08,16,06,09,25.70
2010,08,16,06,10,25.70
2010,08,16,06,11,25.70
2010,08,16,06,12,25.70
2010,08,16,06,13,25.70
2010,08,16,06,14,25.70
2010,08,16,06,15,25.70
2010,08,16,06,16,25.70
2010,08,16,06,17,25.70
2010,08,16,06,18,25.70
2010,08,16,06,19,25.70
2010,08,16,06,20,25.70
2010,08,16,06,21,25.60
2010,08,16,06,22,25.60
2010,08,16,06,23,25.50
2010,08,16,06,24,25.40
2010,08,16,06,25,25.30
2010,08,16,06,26,25.20
2010,08,16,06,27,25.20
2010,08,16,06,28,25.20
2010,08,16,06,29,25.10
2010,08,16,06,30,25.10
2010,08,16,06,31,25.10
2010,08,16,06,32,25.10
2010,08,16,06,33,25.10
2010,08,16,06,34,25.10
2010,08,16,06,35,25.10
2010,08,16,06,36,25.10
2010,08,16,06,37,25.20
2010,08,16,06,38,25.20
2010,08,16,06,39,25.20
2010,08,16,06,40,25.20
2010,08,16,06,41,25.20
2010,08,16,06,42,25.20
2010,08,16,06,43,25.30
2010,08,16,06,44,25.30
2010,08,16,06,45,25.30
2010,08,16,06,46,25.30
2010,08,16,06,47,25.30
2010,08,16,06,48,25.40
2010,08,16,06,49,25.40
2010,08,16,06,50,25.40
2010,08,16,06,51,25.40
2010,08,16,06,52,25.40
2010,08,16,06,53,25.40
2010,08,16,06,54,25.40
2010,08,16,06,55,25.40
2010,08,16,06,56,25.40
2010,08,16,06,57,25.40
2010,08,16,06,58,25.40
2010,08,16,06,59,25.40
2010,08,16,07,00,25.40
2010,08,16,07,01,25.40
2010,08,16,07,02,25.50
2010,08,16,07,03,25.50
2010,08,16,07,04,25.50
2010,08,16,07,05,25.50
2010,08,16,07,06,25.60
2010,08,16,07,07,25.60
2010,08,16,07,08,25.60
2010,08,16,07,09,25.60
2010,08,16,07,10,25.70
2010,08,16,07,11,25.70
2010,08,16,07,12,25.70
2010,08,16,07,13,25.70
2010,08,16,07,14,25.70
2010,08,16,07,15,25.70
2010,08,16,07,16,25.70
2010,08,16,07,17,25.70
2010,08,16,07,18,25.70
2010,08,16,07,19,25.60
2010,08,16,07,20,25.60
2010,08,16,07,21,25.60
2010,08,16,07,22,25.50
2010,08,16,07,23,25.30
2010,08,16,07,24,25.10
2010,08,16,07,25,24.80
2010,08,16,07,26,24.50
2010,08,16,07,27,24.30
2010,08,16,07,28,24.20
2010,08,16,07,29,24.00
2010,08,16,07,30,23.90
2010,08,16,07,31,23.80
2010,08,16,07,32,23.70
2010,08,16,07,33,23.60
2010,08,16,07,34,23.50
2010,08,16,07,35,23.50
2010,08,16,07,36,23.40
2010,08,16,07,37,23.40
2010,08,16,07,38,23.30
2010,08,16,07,39,23.30
2010,08,16,07,40,23.30
2010,08,16,07,41,23.30
2010,08,16,07,42,23.30
2010,08,16,07,43,23.20
2010,08,16,07,44,23.20
2010,08,16,07,45,23.20
2010,08,16,07,46,23.20
2010,08,16,07,47,23.10
2010,08,16,07,48,23.10
2010,08,16,07,49,23.00
2010,08,16,07,50,22.90
2010,08,16,07,51,22.90
2010,08,16,07,52,22.80
2010,08,16,07,53,22.80
2010,08,16,07,54,22.70
2010,08,16,07,55,22.60
2010,08,16,07,56,22.60
2010,08,16,07,57,22.50
2010,08,16,07,58,22.50
2010,08,16,07,59,22.40
2010,08,16,08,00,22.40
2010,08,16,08,01,22.40
2010,08,16,08,02,22.40
2010,08,16,08,03,22.40
2010,08,16,08,04,22.40
2010,08,16,08,05,22.40
2010,08,16,08,06,22.50
2010,08,16,08,07,22.50
2010,08,16,08,08,22.50
2010,08,16,08,09,22.50
2010,08,16,08,10,22.50
2010,08,16,08,11,22.50
2010,08,16,08,12,22.50
2010,08,16,08,13,22.60
2010,08,16,08,14,22.60
2010,08,16,08,15,22.60
2010,08,16,08,16,22.70
2010,08,16,08,17,22.70
2010,08,16,08,18,22.70
2010,08,16,08,19,22.70
2010,08,16,08,20,22.70
2010,08,16,08,21,22.70
2010,08,16,08,22,22.70
2010,08,16,08,23,22.70
2010,08,16,08,24,22.70
2010,08,16,08,25,22.70
2010,08,16,08,26,22.70
2010,08,16,08,27,22.70
2010,08,16,08,28,22.70
2010,08,16,08,29,22.70
2010,08,16,08,30,22.70
2010,08,16,08,31,22.70
2010,08,16,08,32,22.70
2010,08,16,08,33,22.70
2010,08,16,08,34,22.70
2010,08,16,08,35,22.80
2010,08,16,08,36,22.80
2010,08,16,08,37,22.80
2010,08,16,08,38,22.80
2010,08,16,08,39,22.90
2010,08,16,08,40,22.90
2010,08,16,08,41,23.00
2010,08,16,08,42,23.00
2010,08,16,08,43,23.10
2010,08,16,08,44,23.10
2010,08,16,08,45,23.20
2010,08,16,08,46,23.20
2010,08,16,08,47,23.20
2010,08,16,08,48,23.20
2010,08,16,08,49,23.20
2010,08,16,08,50,23.20
2010,08,16,08,51,23.20
2010,08,16,08,52,23.20
2010,08,16,08,53,23.20
2010,08,16,08,54,23.20
2010,08,16,08,55,23.20
2010,08,16,08,56,23.20
2010,08,16,08,57,23.20
2010,08,16,08,58,23.30
2010,08,16,08,59,23.30
2010,08,16,09,00,23.30
2010,08,16,09,01,23.30
2010,08,16,09,02,23.30
2010,08,16,09,03,23.40
2010,08,16,09,04,23.50
2010,08,16,09,05,23.50
2010,08,16,09,06,23.60
2010,08,16,09,07,23.60
2010,08,16,09,08,23.60
2010,08,16,09,09,23.70
2010,08,16,09,10,23.70
2010,08,16,09,11,23.70
2010,08,16,09,12,23.80
2010,08,16,09,13,23.80
2010,08,16,09,14,23.80
2010,08,16,09,15,23.90
2010,08,16,09,16,23.90
2010,08,16,09,17,24.00
2010,08,16,09,18,24.00
2010,08,16,09,19,24.10
2010,08,16,09,20,24.10
2010,08,16,09,21,24.10
2010,08,16,09,22,24.20
2010,08,16,09,23,24.30
2010,08,16,09,24,24.30
2010,08,16,09,25,24.40
2010,08,16,09,26,24.40
2010,08,16,09,27,24.50
2010,08,16,09,28,24.60
2010,08,16,09,29,24.60
2010,08,16,09,30,24.70
2010,08,16,09,31,24.70
2010,08,16,09,32,24.70
2010,08,16,09,33,24.80
2010,08,16,09,34,24.80
2010,08,16,09,35,24.80
2010,08,16,09,36,24.80
2010,08,16,09,37,24.80
2010,08,16,09,38,24.90
2010,08,16,09,39,24.90
2010,08,16,09,40,24.90
2010,08,16,09,41,25.00
2010,08,16,09,42,25.00
2010,08,16,09,43,25.10
2010,08,16,09,44,25.10
2010,08,16,09,45,25.20
2010,08,16,09,46,25.20
2010,08,16,09,47,25.30
2010,08,16,09,48,25.30
2010,08,16,09,49,25.30
2010,08,16,09,50,25.30
2010,08,16,09,51,25.30
2010,08,16,09,52,25.30
2010,08,16,09,53,25.30
2010,08,16,09,54,25.40
2010,08,16,09,55,25.40
2010,08,16,09,56,25.40
2010,08,16,09,57,25.40
2010,08,16,09,58,25.40
2010,08,16,09,59,25.50
2010,08,16,10,00,25.50
2010,08,16,10,01,25.50
2010,08,16,10,02,25.50
2010,08,16,10,03,25.50
2010,08,16,10,04,25.50
2010,08,16,10,05,25.50
2010,08,16,10,06,25.50
2010,08,16,10,07,25.50
2010,08,16,10,08,25.60
2010,08,16,10,09,25.60
2010,08,16,10,10,25.70
2010,08,16,10,11,25.70
2010,08,16,10,12,25.80
2010,08,16,10,13,25.80
2010,08,16,10,14,25.90
2010,08,16,10,15,25.90
2010,08,16,10,16,26.00
2010,08,16,10,17,26.00
2010,08,16,10,18,26.10
2010,08,16,10,19,26.10
2010,08,16,10,20,26.20
2010,08,16,10,21,26.20
2010,08,16,10,22,26.30
2010,08,16,10,23,26.40
2010,08,16,10,24,26.40
2010,08,16,10,25,26.50
2010,08,16,10,26,26.60
2010,08,16,10,27,26.60
2010,08,16,10,28,26.70
2010,08,16,10,29,26.80
2010,08,16,10,30,26.90
2010,08,16,10,31,26.90
2010,08,16,10,32,27.00
2010,08,16,10,33,27.00
2010,08,16,10,34,27.10
2010,08,16,10,35,27.10
2010,08,16,10,36,27.10
2010,08,16,10,37,27.10
2010,08,16,10,38,27.10
2010,08,16,10,39,27.20
2010,08,16,10,40,27.20
2010,08,16,10,41,27.20
2010,08,16,10,42,27.10
2010,08,16,10,43,27.20
2010,08,16,10,44,27.20
2010,08,16,10,45,27.20
2010,08,16,10,46,27.20
2010,08,16,10,47,27.20
2010,08,16,10,48,27.10
2010,08,16,10,49,27.10
2010,08,16,10,50,27.10
2010,08,16,10,51,27.10
2010,08,16,10,52,27.10
2010,08,16,10,53,27.10
2010,08,16,10,54,27.20
2010,08,16,10,55,27.20
2010,08,16,10,56,27.20
2010,08,16,10,57,27.20
2010,08,16,10,58,27.30
2010,08,16,10,59,27.30
2010,08,16,11,00,27.30
2010,08,16,11,01,27.30
2010,08,16,11,02,27.40
2010,08,16,11,03,27.40
2010,08,16,11,04,27.50
2010,08,16,11,05,27.60
2010,08,16,11,06,27.70
2010,08,16,11,07,27.80
2010,08,16,11,08,27.80
2010,08,16,11,09,27.80
2010,08,16,11,10,27.90
2010,08,16,11,11,27.90
2010,08,16,11,12,27.90
2010,08,16,11,13,27.90
2010,08,16,11,14,27.90
2010,08,16,11,15,27.90
2010,08,16,11,16,27.90
2010,08,16,11,17,27.90
2010,08,16,11,18,27.90
2010,08,16,11,19,28.00
2010,08,16,11,20,28.10
2010,08,16,11,21,28.20
2010,08,16,11,22,28.20
2010,08,16,11,23,28.10
2010,08,16,11,24,28.10
2010,08,16,11,25,28.10
2010,08,16,11,26,28.10
2010,08,16,11,27,28.10
2010,08,16,11,28,28.10
2010,08,16,11,29,28.10
2010,08,16,11,30,28.10
2010,08,16,11,31,28.10
2010,08,16,11,32,28.20
2010,08,16,11,33,28.20
2010,08,16,11,34,28.20
2010,08,16,11,35,28.20
2010,08,16,11,36,28.20
2010,08,16,11,37,28.20
2010,08,16,11,38,28.30
2010,08,16,11,39,28.30
2010,08,16,11,40,28.30
2010,08,16,11,41,28.20
2010,08,16,11,42,28.20
2010,08,16,11,43,28.10
2010,08,16,11,44,28.10
2010,08,16,11,45,28.00
2010,08,16,11,46,28.00
2010,08,16,11,47,28.00
2010,08,16,11,48,27.90
2010,08,16,11,49,27.90
2010,08,16,11,50,27.90
2010,08,16,11,51,27.90
2010,08,16,11,52,27.90
2010,08,16,11,53,27.90
2010,08,16,11,54,27.90
2010,08,16,11,55,27.90
2010,08,16,11,56,27.90
2010,08,16,11,57,27.90
2010,08,16,11,58,27.90
2010,08,16,11,59,28.00
2010,08,16,12,00,28.00
2010,08,16,12,01,28.00
2010,08,16,12,02,28.00
2010,08,16,12,03,28.10
2010,08,16,12,04,28.10
2010,08,16,12,05,28.10
2010,08,16,12,06,28.10
2010,08,16,12,07,28.10
2010,08,16,12,08,28.10
2010,08,16,12,09,28.10
2010,08,16,12,10,28.10
2010,08,16,12,11,28.10
2010,08,16,12,12,28.20
2010,08,16,12,13,28.30
2010,08,16,12,14,28.40
2010,08,16,12,15,28.50
2010,08,16,12,16,28.50
2010,08,16,12,17,28.50
2010,08,16,12,18,28.50
2010,08,16,12,19,28.50
2010,08,16,12,20,28.50
2010,08,16,12,21,28.50
2010,08,16,12,22,28.50
2010,08,16,12,23,28.50
2010,08,16,12,24,28.60
2010,08,16,12,25,28.60
2010,08,16,12,26,28.70
2010,08,16,12,27,28.70
2010,08,16,12,28,28.80
2010,08,16,12,29,28.70
2010,08,16,12,30,28.70
2010,08,16,12,31,28.70
2010,08,16,12,32,28.70
2010,08,16,12,33,28.70
2010,08,16,12,34,28.70
2010,08,16,12,35,28.70
2010,08,16,12,36,28.70
2010,08,16,12,37,28.70
2010,08,16,12,38,28.70
2010,08,16,12,39,28.80
2010,08,16,12,40,28.80
2010,08,16,12,41,28.80
2010,08,16,12,42,28.80
2010,08,16,12,43,28.80
2010,08,16,12,44,28.90
2010,08,16,12,45,28.90
2010,08,16,12,46,29.00
2010,08,16,12,47,29.10
2010,08,16,12,48,29.10
2010,08,16,12,49,29.20
2010,08,16,12,50,29.20
2010,08,16,12,51,29.20
2010,08,16,12,52,29.20
2010,08,16,12,53,29.20
2010,08,16,12,54,29.20
2010,08,16,12,55,29.20
2010,08,16,12,56,29.20
2010,08,16,12,57,29.20
2010,08,16,12,58,29.20
2010,08,16,12,59,29.20
2010,08,16,13,00,29.20
2010,08,16,13,01,29.20
2010,08,16,13,02,29.30
2010,08,16,13,03,29.30
2010,08,16,13,04,29.40
2010,08,16,13,05,29.30
2010,08,16,13,06,29.30
2010,08,16,13,07,29.30
2010,08,16,13,08,29.20
2010,08,16,13,09,29.30
2010,08,16,13,10,29.30
2010,08,16,13,11,29.30
2010,08,16,13,12,29.40
2010,08,16,13,13,29.40
2010,08,16,13,14,29.50
2010,08,16,13,15,29.60
2010,08,16,13,16,29.60
2010,08,16,13,17,29.70
2010,08,16,13,18,29.80
2010,08,16,13,19,29.80
2010,08,16,13,20,29.80
2010,08,16,13,21,29.90
2010,08,16,13,22,29.90
2010,08,16,13,23,29.90
2010,08,16,13,24,29.90
2010,08,16,13,25,29.90
2010,08,16,13,26,29.90
2010,08,16,13,27,29.80
2010,08,16,13,28,29.80
2010,08,16,13,29,29.80
2010,08,16,13,30,29.80
2010,08,16,13,31,29.80
2010,08,16,13,32,29.80
2010,08,16,13,33,29.80
2010,08,16,13,34,29.90
2010,08,16,13,35,29.90
2010,08,16,13,36,30.00
2010,08,16,13,37,30.00
2010,08,16,13,38,30.10
2010,08,16,13,39,30.10
2010,08,16,13,40,30.10
2010,08,16,13,41,30.10
2010,08,16,13,42,30.10
2010,08,16,13,43,30.10
2010,08,16,13,44,30.10
2010,08,16,13,45,30.10
2010,08,16,13,46,30.10
2010,08,16,13,47,30.20
2010,08,16,13,48,30.20
2010,08,16,13,49,30.20
2010,08,16,13,50,30.20
2010,08,16,13,51,30.20
2010,08,16,13,52,30.20
2010,08,16,13,53,30.20
2010,08,16,13,54,30.20
2010,08,16,13,55,30.30
2010,08,16,13,56,30.30
2010,08,16,13,57,30.30
2010,08,16,13,58,30.20
2010,08,16,13,59,30.20
2010,08,16,14,00,30.20
2010,08,16,14,01,30.30
2010,08,16,14,02,30.30
2010,08,16,14,03,30.30
2010,08,16,14,04,30.30
2010,08,16,14,05,30.40
2010,08,16,14,06,30.50
2010,08,16,14,07,30.60
2010,08,16,14,08,30.50
2010,08,16,14,09,30.40
2010,08,16,14,10,30.40
2010,08,16,14,11,30.30
2010,08,16,14,12,30.30
2010,08,16,14,13,30.30
2010,08,16,14,14,30.20
2010,08,16,14,15,30.20
2010,08,16,14,16,30.20
2010,08,16,14,17,30.20
2010,08,16,14,18,30.20
2010,08,16,14,19,30.20
2010,08,16,14,20,30.20
2010,08,16,14,21,30.20
2010,08,16,14,22,30.20
2010,08,16,14,23,30.10
2010,08,16,14,24,30.20
2010,08,16,14,25,30.20
2010,08,16,14,26,30.20
2010,08,16,14,27,30.30
2010,08,16,14,28,30.50
2010,08,16,14,29,30.60
2010,08,16,14,30,30.70
2010,08,16,14,31,30.80
2010,08,16,14,32,30.90
2010,08,16,14,33,30.90
2010,08,16,14,34,31.00
2010,08,16,14,35,31.00
2010,08,16,14,36,31.00
2010,08,16,14,37,30.90
2010,08,16,14,38,30.80
2010,08,16,14,39,30.80
2010,08,16,14,40,30.70
2010,08,16,14,41,30.70
2010,08,16,14,42,30.70
2010,08,16,14,43,30.60
2010,08,16,14,44,30.60
2010,08,16,14,45,30.70
2010,08,16,14,46,30.80
2010,08,16,14,47,30.80
2010,08,16,14,48,30.80
2010,08,16,14,49,30.80
2010,08,16,14,50,30.90
2010,08,16,14,51,30.90
2010,08,16,14,52,31.00
2010,08,16,14,53,31.10
2010,08,16,14,54,31.20
2010,08,16,14,55,31.20
2010,08,16,14,56,31.30
2010,08,16,14,57,31.40
2010,08,16,14,58,31.30
2010,08,16,14,59,31.30
2010,08,16,15,00,31.30
2010,08,16,15,01,31.20
2010,08,16,15,02,31.20
2010,08,16,15,03,31.30
2010,08,16,15,04,31.30
2010,08,16,15,05,31.30
2010,08,16,15,06,31.30
2010,08,16,15,07,31.30
2010,08,16,15,08,31.30
2010,08,16,15,09,31.30
2010,08,16,15,10,31.30
2010,08,16,15,11,31.30
2010,08,16,15,12,31.30
2010,08,16,15,13,31.30
2010,08,16,15,14,31.30
2010,08,16,15,15,31.30
2010,08,16,15,16,31.30
2010,08,16,15,17,31.20
2010,08,16,15,18,31.20
2010,08,16,15,19,31.10
2010,08,16,15,20,31.10
2010,08,16,15,21,31.10
2010,08,16,15,22,31.10
2010,08,16,15,23,31.10
2010,08,16,15,24,31.10
2010,08,16,15,25,31.10
2010,08,16,15,26,31.20
2010,08,16,15,27,31.30
2010,08,16,15,28,31.40
2010,08,16,15,29,31.50
2010,08,16,15,30,31.50
2010,08,16,15,31,31.60
2010,08,16,15,32,31.60
2010,08,16,15,33,31.60
2010,08,16,15,34,31.60
2010,08,16,15,35,31.60
2010,08,16,15,36,31.60
2010,08,16,15,37,31.60
2010,08,16,15,38,31.60
2010,08,16,15,39,31.50
2010,08,16,15,40,31.40
2010,08,16,15,41,31.40
2010,08,16,15,42,31.30
2010,08,16,15,43,31.30
2010,08,16,15,44,31.30
2010,08,16,15,45,31.20
2010,08,16,15,46,31.20
2010,08,16,15,47,31.20
2010,08,16,15,48,31.20
2010,08,16,15,49,31.20
2010,08,16,15,50,31.20
2010,08,16,15,51,31.20
2010,08,16,15,52,31.20
2010,08,16,15,53,31.20
2010,08,16,15,54,31.30
2010,08,16,15,55,31.30
2010,08,16,15,56,31.30
2010,08,16,15,57,31.20
2010,08,16,15,58,31.20
2010,08,16,15,59,31.20
2010,08,16,16,00,31.20
2010,08,16,16,01,31.20
2010,08,16,16,02,31.20
2010,08,16,16,03,31.20
2010,08,16,16,04,31.20
2010,08,16,16,05,31.20
2010,08,16,16,06,31.20
2010,08,16,16,07,31.20
2010,08,16,16,08,31.20
2010,08,16,16,09,31.20
2010,08,16,16,10,31.20
2010,08,16,16,11,31.10
2010,08,16,16,12,31.10
2010,08,16,16,13,31.10
2010,08,16,16,14,31.10
2010,08,16,16,15,31.10
2010,08,16,16,16,31.10
2010,08,16,16,17,31.20
2010,08,16,16,18,31.20
2010,08,16,16,19,31.20
2010,08,16,16,20,31.20
2010,08,16,16,21,31.20
2010,08,16,16,22,31.10
2010,08,16,16,23,31.20
2010,08,16,16,24,31.20
2010,08,16,16,25,31.20
2010,08,16,16,26,31.20
2010,08,16,16,27,31.20
2010,08,16,16,28,31.20
2010,08,16,16,29,31.30
2010,08,16,16,30,31.30
2010,08,16,16,31,31.30
2010,08,16,16,32,31.30
2010,08,16,16,33,31.30
2010,08,16,16,34,31.30
2010,08,16,16,35,31.30
2010,08,16,16,36,31.30
2010,08,16,16,37,31.30
2010,08,16,16,38,31.30
2010,08,16,16,39,31.30
2010,08,16,16,40,31.30
2010,08,16,16,41,31.30
2010,08,16,16,42,31.30
2010,08,16,16,43,31.30
2010,08,16,16,44,31.30
2010,08,16,16,45,31.30
2010,08,16,16,46,31.30
2010,08,16,16,47,31.30
2010,08,16,16,48,31.30
2010,08,16,16,49,31.30
2010,08,16,16,50,31.30
2010,08,16,16,51,31.40
2010,08,16,16,52,31.40
2010,08,16,16,53,31.40
2010,08,16,16,54,31.40
2010,08,16,16,55,31.40
2010,08,16,16,56,31.40
2010,08,16,16,57,31.40
2010,08,16,16,58,31.40
2010,08,16,16,59,31.40
2010,08,16,17,00,31.40
2010,08,16,17,01,31.40
2010,08,16,17,02,31.40
2010,08,16,17,03,31.40
2010,08,16,17,04,31.40
2010,08,16,17,05,31.40
2010,08,16,17,06,31.40
2010,08,16,17,07,31.50
2010,08,16,17,08,31.50
2010,08,16,17,09,31.50
2010,08,16,17,10,31.50
2010,08,16,17,11,31.40
2010,08,16,17,12,31.40
2010,08,16,17,13,31.40
2010,08,16,17,14,31.40
2010,08,16,17,15,31.40
2010,08,16,17,16,31.40
2010,08,16,17,17,31.40
2010,08,16,17,18,31.40
2010,08,16,17,19,31.40